WZZ454D LHBP-LQTZ

Flight info

Callsign WZZ454D
Flight time 0h 41m
Altitude 28000
Route DUZLA DCT BAREB/N0279F080 P10 VIBOP
Aircraft A320/M-SDE3FGHIRWY/LB1

Departure

Time 2026-05-05 18:43
Airport Budapest Liszt Ferenc International Airport (LHBP)

Arrival

Time 2026-05-05 19:25
Airport Tuzla International Airport (LQTZ)
Time Latitude Longitude Altitude Speed Heading
2026-05-05 18:21 47.43394 19.26656 458 ft 0 kts 222°
2026-05-05 18:31 47.43395 19.26656 458 ft 0 kts 222°
2026-05-05 18:33 47.43410 19.26678 458 ft 4 kts 225°
2026-05-05 18:33 47.43427 19.26707 456 ft 4 kts 249°
2026-05-05 18:34 47.43428 19.26733 454 ft 1 kts 312°
2026-05-05 18:34 47.43427 19.26734 454 ft 3 kts 312°
2026-05-05 18:38 47.43429 19.26732 454 ft 1 kts 312°
2026-05-05 18:38 47.43462 19.26678 458 ft 10 kts 312°
2026-05-05 18:38 47.43518 19.26588 458 ft 13 kts 312°
2026-05-05 18:39 47.43588 19.26475 458 ft 16 kts 313°
2026-05-05 18:39 47.43665 19.26357 458 ft 15 kts 328°
2026-05-05 18:39 47.43757 19.26421 458 ft 16 kts 29°
2026-05-05 18:39 47.43837 19.26339 458 ft 16 kts 311°
2026-05-05 18:40 47.43917 19.26219 458 ft 16 kts 332°
2026-05-05 18:40 47.43999 19.26266 460 ft 0 kts 43°
2026-05-05 18:41 47.44007 19.26276 460 ft 5 kts 43°
2026-05-05 18:41 47.44048 19.26342 464 ft 11 kts 55°
2026-05-05 18:41 47.44069 19.26471 471 ft 16 kts 94°
2026-05-05 18:41 47.44022 19.26602 468 ft 0 kts 132°
2026-05-05 18:42 47.44019 19.26606 469 ft 5 kts 132°
2026-05-05 18:43 47.43824 19.26919 473 ft 79 kts 132°
2026-05-05 18:43 47.43308 19.27751 465 ft 137 kts 133°
2026-05-05 18:43 47.42561 19.28932 661 ft 166 kts 134°
2026-05-05 18:43 47.41767 19.30180 1313 ft 169 kts 135°
2026-05-05 18:44 47.41057 19.31626 1845 ft 184 kts 124°
2026-05-05 18:44 47.40402 19.33395 2149 ft 209 kts 121°
2026-05-05 18:44 47.39709 19.35429 2571 ft 234 kts 120°
2026-05-05 18:44 47.39328 19.36544 2847 ft 245 kts 120°
2026-05-05 18:45 47.38875 19.37859 3311 ft 250 kts 121°
2026-05-05 18:45 47.37898 19.40018 4034 ft 260 kts 143°
2026-05-05 18:45 47.36263 19.41058 4867 ft 259 kts 179°
2026-05-05 18:46 47.34542 19.40464 5855 ft 259 kts 212°
2026-05-05 18:46 47.33320 19.38515 6822 ft 265 kts 237°
2026-05-05 18:46 47.32532 19.36047 7818 ft 267 kts 245°
2026-05-05 18:46 47.31842 19.33503 8818 ft 268 kts 245°
2026-05-05 18:47 47.31149 19.30944 9802 ft 269 kts 245°
2026-05-05 18:47 47.30449 19.28376 10640 ft 272 kts 243°
2026-05-05 18:47 47.29563 19.25806 11009 ft 293 kts 237°
2026-05-05 18:47 47.28455 19.23157 11279 ft 314 kts 234°
2026-05-05 18:48 47.27233 19.20428 11865 ft 323 kts 234°
2026-05-05 18:48 47.25977 19.17650 12571 ft 329 kts 234°
2026-05-05 18:48 47.24712 19.14817 13287 ft 334 kts 234°
2026-05-05 18:48 47.23443 19.11925 13956 ft 339 kts 235°
2026-05-05 18:49 47.22169 19.08977 14595 ft 343 kts 236°
2026-05-05 18:49 47.20889 19.05987 15221 ft 348 kts 236°
2026-05-05 18:49 47.19570 19.02987 15839 ft 351 kts 232°
2026-05-05 18:49 47.17947 19.00287 16446 ft 355 kts 222°
2026-05-05 18:50 47.16054 18.97928 17053 ft 359 kts 219°
2026-05-05 18:50 47.14124 18.95569 17665 ft 363 kts 220°
2026-05-05 18:50 47.12172 18.93182 18268 ft 368 kts 220°
2026-05-05 18:50 47.10198 18.90765 18828 ft 371 kts 220°
2026-05-05 18:51 47.08209 18.88322 19408 ft 375 kts 220°
2026-05-05 18:51 47.06200 18.85855 19981 ft 378 kts 220°
2026-05-05 18:51 47.04175 18.83371 20543 ft 381 kts 220°
2026-05-05 18:51 47.02128 18.80869 21095 ft 385 kts 220°
2026-05-05 18:52 47.00062 18.78351 21646 ft 388 kts 220°
2026-05-05 18:52 46.97959 18.75858 22157 ft 391 kts 217°
2026-05-05 18:52 46.95614 18.73806 22684 ft 396 kts 207°
2026-05-05 18:52 46.93024 18.72381 23193 ft 401 kts 197°
2026-05-05 18:53 46.90278 18.71555 23664 ft 405 kts 192°
2026-05-05 18:53 46.87495 18.70822 24095 ft 408 kts 192°
2026-05-05 18:53 46.84696 18.70086 24541 ft 410 kts 192°
2026-05-05 18:53 46.81880 18.69345 24978 ft 412 kts 192°
2026-05-05 18:54 46.79050 18.68599 25413 ft 415 kts 192°
2026-05-05 18:54 46.76201 18.67844 25842 ft 417 kts 192°
2026-05-05 18:54 46.73337 18.67083 26254 ft 420 kts 192°
2026-05-05 18:54 46.70457 18.66313 26665 ft 422 kts 192°
2026-05-05 18:55 46.67561 18.65538 27075 ft 424 kts 192°
2026-05-05 18:55 46.64649 18.64761 27524 ft 426 kts 192°
2026-05-05 18:55 46.61725 18.63983 27872 ft 428 kts 192°
2026-05-05 18:55 46.58792 18.63205 27949 ft 429 kts 192°
2026-05-05 18:56 46.55856 18.62431 27952 ft 429 kts 192°
2026-05-05 18:56 46.52915 18.61661 27955 ft 429 kts 192°
2026-05-05 18:56 46.49974 18.60894 27956 ft 429 kts 192°
2026-05-05 18:56 46.47041 18.60126 27957 ft 429 kts 192°
2026-05-05 18:57 46.44106 18.59355 27959 ft 428 kts 192°
2026-05-05 18:57 46.41187 18.58584 27956 ft 428 kts 192°
2026-05-05 18:57 46.38257 18.57812 27963 ft 428 kts 192°
2026-05-05 18:57 46.35327 18.57043 27966 ft 428 kts 192°
2026-05-05 18:58 46.32395 18.56276 27963 ft 428 kts 192°
2026-05-05 18:58 46.29461 18.55510 27960 ft 428 kts 192°
2026-05-05 18:58 46.26531 18.54752 27962 ft 428 kts 192°
2026-05-05 18:58 46.23598 18.53997 27966 ft 428 kts 192°
2026-05-05 18:59 46.20668 18.53237 27976 ft 428 kts 192°
2026-05-05 18:59 46.17742 18.52470 27971 ft 427 kts 192°
2026-05-05 18:59 46.14815 18.51701 27979 ft 427 kts 192°
2026-05-05 18:59 46.11890 18.50932 27980 ft 427 kts 192°
2026-05-05 19:00 46.08965 18.50168 27981 ft 427 kts 192°
2026-05-05 19:00 46.06042 18.49411 27971 ft 427 kts 192°
2026-05-05 19:00 46.03117 18.48655 27979 ft 427 kts 192°
2026-05-05 19:00 46.00195 18.47903 27980 ft 427 kts 192°
2026-05-05 19:01 45.97267 18.47152 27982 ft 427 kts 192°
2026-05-05 19:01 45.94343 18.46403 27982 ft 427 kts 192°
2026-05-05 19:01 45.91416 18.45651 27982 ft 427 kts 192°
2026-05-05 19:01 45.88491 18.44897 27971 ft 428 kts 192°
2026-05-05 19:02 45.85561 18.44143 27967 ft 428 kts 192°
2026-05-05 19:02 45.82633 18.43391 27968 ft 428 kts 192°
2026-05-05 19:02 45.79701 18.42647 27975 ft 428 kts 191°
2026-05-05 19:02 45.76723 18.42332 27975 ft 431 kts 181°
2026-05-05 19:03 45.73734 18.42773 27980 ft 434 kts 171°
2026-05-05 19:03 45.70827 18.43965 27973 ft 437 kts 161°
2026-05-05 19:03 45.68091 18.45748 27977 ft 439 kts 157°
2026-05-05 19:03 45.65334 18.47623 27983 ft 439 kts 157°
2026-05-05 19:04 45.62540 18.49511 27989 ft 438 kts 158°
2026-05-05 19:04 45.59782 18.51366 27992 ft 438 kts 158°
2026-05-05 19:04 45.57060 18.53191 27994 ft 438 kts 158°
2026-05-05 19:04 45.54297 18.55028 27895 ft 438 kts 159°
2026-05-05 19:05 45.51436 18.56452 27626 ft 434 kts 168°
2026-05-05 19:05 45.48495 18.57408 27361 ft 434 kts 170°
2026-05-05 19:05 45.45544 18.58342 27098 ft 437 kts 170°
2026-05-05 19:05 45.42585 18.59277 26591 ft 433 kts 169°
2026-05-05 19:06 45.39657 18.60205 25944 ft 430 kts 169°
2026-05-05 19:06 45.36750 18.61131 25317 ft 426 kts 169°
2026-05-05 19:06 45.33866 18.62050 24689 ft 423 kts 169°
2026-05-05 19:06 45.31005 18.62960 24067 ft 420 kts 169°
2026-05-05 19:07 45.28159 18.63865 23438 ft 418 kts 169°
2026-05-05 19:07 45.26248 18.64472 22979 ft 415 kts 169°
2026-05-05 19:07 45.22545 18.65646 22201 ft 407 kts 169°
2026-05-05 19:07 45.19814 18.66506 21228 ft 399 kts 169°
2026-05-05 19:08 45.17129 18.67351 20240 ft 392 kts 169°
2026-05-05 19:08 45.14459 18.68188 19640 ft 391 kts 169°
2026-05-05 19:08 45.11821 18.69014 19158 ft 386 kts 169°
2026-05-05 19:08 45.09253 18.69820 19005 ft 367 kts 169°
2026-05-05 19:09 45.06856 18.70575 18881 ft 340 kts 169°
2026-05-05 19:09 45.04599 18.71288 18453 ft 330 kts 169°
2026-05-05 19:09 45.02368 18.71988 18122 ft 326 kts 169°
2026-05-05 19:09 45.00152 18.72555 17745 ft 322 kts 176°
2026-05-05 19:10 44.97939 18.72544 17471 ft 315 kts 186°
2026-05-05 19:10 44.95771 18.72300 17202 ft 310 kts 185°
2026-05-05 19:10 44.93638 18.72073 16950 ft 305 kts 185°
2026-05-05 19:10 44.91536 18.71852 16693 ft 301 kts 185°
2026-05-05 19:11 44.89456 18.71636 16439 ft 298 kts 185°
2026-05-05 19:11 44.87393 18.71421 16188 ft 296 kts 185°
2026-05-05 19:11 44.85342 18.71207 15938 ft 294 kts 185°
2026-05-05 19:11 44.83307 18.70993 15689 ft 292 kts 185°
2026-05-05 19:12 44.81283 18.70781 15380 ft 291 kts 185°
2026-05-05 19:12 44.79263 18.70572 15055 ft 290 kts 185°
2026-05-05 19:12 44.77261 18.70364 14676 ft 290 kts 185°
2026-05-05 19:12 44.75266 18.70153 14432 ft 285 kts 185°
2026-05-05 19:13 44.73296 18.69945 14125 ft 283 kts 184°
2026-05-05 19:13 44.71971 18.69806 13932 ft 281 kts 184°
2026-05-05 19:13 44.70057 18.69605 13660 ft 278 kts 184°
2026-05-05 19:13 44.68106 18.69401 13318 ft 277 kts 184°
2026-05-05 19:14 44.66194 18.69213 13065 ft 271 kts 181°
2026-05-05 19:14 44.64422 18.69692 12908 ft 255 kts 155°
2026-05-05 19:14 44.63097 18.71267 12527 ft 253 kts 126°
2026-05-05 19:14 44.62490 18.73585 12032 ft 257 kts 103°
2026-05-05 19:15 44.62207 18.76061 11481 ft 256 kts 103°
2026-05-05 19:15 44.61931 18.78514 10984 ft 252 kts 103°
2026-05-05 19:15 44.61655 18.80935 10474 ft 251 kts 103°
2026-05-05 19:15 44.61381 18.83310 10040 ft 248 kts 103°
2026-05-05 19:16 44.61103 18.85690 9563 ft 246 kts 103°
2026-05-05 19:16 44.60823 18.88055 9057 ft 245 kts 103°
2026-05-05 19:16 44.60548 18.90383 8770 ft 235 kts 103°
2026-05-05 19:16 44.60290 18.92599 8563 ft 221 kts 103°
2026-05-05 19:17 44.60043 18.94712 8156 ft 218 kts 103°
2026-05-05 19:17 44.59795 18.96802 7708 ft 217 kts 103°
2026-05-05 19:17 44.59400 18.98850 6994 ft 222 kts 127°
2026-05-05 19:17 44.58207 19.00142 6364 ft 221 kts 166°
2026-05-05 19:18 44.56696 19.00446 5776 ft 224 kts 178°
2026-05-05 19:18 44.55121 19.00671 5340 ft 226 kts 172°
2026-05-05 19:18 44.53613 19.01231 5114 ft 224 kts 166°
2026-05-05 19:18 44.52178 19.01841 4960 ft 212 kts 173°
2026-05-05 19:19 44.50752 19.01986 4820 ft 202 kts 187°
2026-05-05 19:19 44.49361 19.01808 4583 ft 200 kts 189°
2026-05-05 19:19 44.47984 19.01605 4336 ft 199 kts 189°
2026-05-05 19:19 44.46595 19.01391 4112 ft 197 kts 189°
2026-05-05 19:20 44.45270 19.01103 3860 ft 193 kts 202°
2026-05-05 19:20 44.44201 18.99989 3544 ft 193 kts 235°
2026-05-05 19:20 44.43804 18.98197 3199 ft 200 kts 267°
2026-05-05 19:20 44.43948 18.96275 2992 ft 193 kts 270°
2026-05-05 19:21 44.44106 18.94485 2978 ft 176 kts 271°
2026-05-05 19:21 44.44244 18.92912 2997 ft 150 kts 270°
2026-05-05 19:21 44.44360 18.91536 3012 ft 140 kts 269°
2026-05-05 19:21 44.44468 18.90192 2995 ft 138 kts 269°
2026-05-05 19:22 44.44574 18.88855 2888 ft 139 kts 269°
2026-05-05 19:22 44.44681 18.87518 2688 ft 139 kts 270°
2026-05-05 19:22 44.44787 18.86170 2498 ft 139 kts 270°
2026-05-05 19:22 44.44892 18.84828 2304 ft 139 kts 271°
2026-05-05 19:23 44.44998 18.83469 2118 ft 142 kts 272°
2026-05-05 19:23 44.45105 18.82087 1912 ft 144 kts 273°
2026-05-05 19:23 44.45215 18.80673 1725 ft 148 kts 274°
2026-05-05 19:23 44.45327 18.79242 1524 ft 148 kts 275°
2026-05-05 19:24 44.45439 18.77819 1327 ft 147 kts 275°
2026-05-05 19:24 44.45550 18.76392 1136 ft 148 kts 276°
2026-05-05 19:24 44.45661 18.74969 952 ft 147 kts 277°
2026-05-05 19:24 44.45779 18.73569 814 ft 143 kts 278°
2026-05-05 19:25 44.45869 18.72415 786 ft 93 kts 277°
2026-05-05 19:25 44.45920 18.71783 785 ft 52 kts 276°
2026-05-05 19:25 44.45939 18.71552 784 ft 15 kts 277°
2026-05-05 19:25 44.45952 18.71393 781 ft 19 kts 276°
2026-05-05 19:26 44.45967 18.71183 777 ft 24 kts 276°
2026-05-05 19:26 44.45993 18.70980 779 ft 19 kts 297°
2026-05-05 19:26 44.46104 18.70925 776 ft 11 kts
2026-05-05 19:26 44.46179 18.70939 776 ft 12 kts 12°
2026-05-05 19:27 44.46255 18.70955 778 ft 9 kts
2026-05-05 19:27 44.46314 18.70966 780 ft 8 kts
2026-05-05 19:27 44.46340 18.70979 781 ft 0 kts 42°
2026-05-05 19:27 44.46340 18.70986 781 ft 3 kts 75°
2026-05-05 19:28 44.46341 18.70994 781 ft 0 kts 83°
2026-05-05 19:28 44.44031 18.95338 2988 ft 186 kts 271°
2026-05-05 19:29 44.44180 18.93647 2999 ft 162 kts 271°
2026-05-05 19:29 44.44306 18.92198 3019 ft 141 kts 270°
2026-05-05 19:29 44.44416 18.90844 3007 ft 139 kts 270°
2026-05-05 19:29 44.45706 18.74399 896 ft 145 kts 277°
2026-05-05 19:30 44.45834 18.73035 789 ft 128 kts 265°
2026-05-05 19:30 44.45896 18.72116 787 ft 65 kts 276°
2026-05-05 19:30 44.45922 18.71757 785 ft 50 kts 277°
2026-05-05 19:30 44.45844 18.72814 787 ft 115 kts 271°
2026-05-05 19:31 44.45904 18.71998 788 ft 60 kts 275°
2026-05-05 19:31 44.45935 18.71607 784 ft 14 kts 276°
2026-05-05 19:31 44.45947 18.71462 783 ft 17 kts 277°
2026-05-05 19:31 44.45961 18.71277 778 ft 21 kts 275°
2026-05-05 19:32 44.45978 18.71080 779 ft 15 kts 278°
2026-05-05 19:32 44.45987 18.70986 779 ft 0 kts 278°